Preview of NWS' New Version of Forecast
This preview is not operational and should not be used for support decisions.

Regional Weather Roundup (RWR)

Issued by National Weather Service (NWS)

                            
000
ASUS43 KMKX 240320
RWRWI 

WISCONSIN REGIONAL WEATHER ROUNDUP
NATIONAL WEATHER SERVICE MILWAUKEE/SULLIVAN WI
1000 PM CDT TUE APR 23 2019

NOTE: "FAIR" INDICATES FEW OR NO CLOUDS BELOW 12,000 FEET WITH NO
SIGNIFICANT WEATHER AND/OR OBSTRUCTIONS TO VISIBILITY.

WIZ001-002-006>008-014>016-023>028-240400-
NORTHWEST WISCONSIN
  
CITY           SKY/WX    TMP DP  RH WIND       PRES   REMARKS
SUPERIOR ARPT  FAIR      38  31  76 NE3       29.98F                  
ASHLAND        FAIR      38  30  73 CALM      30.00F                  
HAYWARD        FAIR      44  37  76 CALM      29.99S                  
SIREN          FAIR      53  38  57 S6        29.98S                  
CUMBERLAND     FAIR      45  37  76 S3        30.00S                  
RICE LAKE      FAIR      47  37  67 CALM      30.01F                  
CHETEK         FAIR      44  37  76 CALM      30.01F                  
LADYSMITH      FAIR      47  38  69 CALM      30.02S                  
EAU CLAIRE     FAIR      50  36  58 CALM      30.00S                  
MENOMONIE      FAIR      47  35  64 CALM      30.01S                  
NEW RICHMOND   FAIR      50  38  63 S3        30.00F                  
OSCEOLA        FAIR      45  39  79 S6        30.02S                  
$$
 
WIZ003>005-009-010-017-018-240400-
NORTH CENTRAL WISCONSIN
  
CITY           SKY/WX    TMP DP  RH WIND       PRES   REMARKS
MANITOWISH WTR FAIR      37  35  95 CALM      30.01S                  
ARBOR VITAE    FAIR      39  32  75 CALM      30.02S                  
WOODRUFF       FAIR      39  32  75 CALM      30.02S                  
RHINELANDER    FAIR      44  26  49 CALM      30.03S                  
EAGLE RIVER    FAIR      35  28  75 CALM      30.01F                  
LAND O LAKES   FAIR      33  29  85 CALM      30.04F                  
PHILLIPS       FAIR      40  34  79 CALM      30.01S                  
TOMAHAWK       FAIR      37  32  83 CALM      30.03S                  
MEDFORD        FAIR      43  32  65 CALM      30.01S                  
MERRILL        FAIR      41  33  71 CALM      30.03S                  
$$
 
WIZ029-030-035-036-043>047-240400-
CENTRAL WISCONSIN
  
CITY           SKY/WX    TMP DP  RH WIND       PRES   REMARKS
WAUSAU         FAIR      48  32  53 E3        30.01R                  
MOSINEE        FAIR      48  30  49 E3        30.03S                  
MARSHFIELD     FAIR      48  35  60 CALM      30.01R                  
STEVENS POINT  FAIR      41  32  70 CALM      30.03S                  
WAUPACA        FAIR      47  36  66 E7        30.03S                  
WAUTOMA        FAIR      46  40  79 CALM      30.03S                  
WISC RAPIDS    FAIR      46  32  58 CALM      30.03R                  
CAMP DOUGLAS   PTCLDY    43  43 100 CALM      30.02R                  
$$
 
WIZ011>013-019>022-031-037>040-048>050-240400-
NORTHEAST WISCONSIN
  
CITY           SKY/WX    TMP DP  RH WIND       PRES   REMARKS
ANTIGO         FAIR      39  33  79 E5        30.03F                  
SHAWANO        FAIR      44  32  61 E5        30.05S                  
OCONTO         FAIR      38  35  88 CALM      30.06S                  
STURGEON BAY   FAIR      40  35  83 CALM      30.07R                  
GREEN BAY      FAIR      44  37  76 SE8       30.06S                  
MANITOWOC      FAIR      39  37  92 CALM      30.07F                  
APPLETON       PTCLDY    45  34  65 SE10      30.04R                  
CLINTONVILLE   FAIR      46  38  72 SE6       30.04S                  
OSHKOSH        FAIR      45  40  82 SE9       30.04R                  
$$
 
WIZ032>034-041-042-053>061-240400-
SOUTHWEST WISCONSIN
  
CITY           SKY/WX    TMP DP  RH WIND       PRES   REMARKS
LA CROSSE      FAIR      52  35  52 CALM      30.01S                  
SPARTA         FAIR      44  37  77 CALM      30.03S                  
VIROQUA        FAIR      54  37  51 CALM      30.03R                  
BOSCOBEL       FAIR      49  39  68 CALM      30.02S                  
PRAIRIE DU CHI FAIR      50  41  71 CALM      30.02S                  
PLATTEVILLE    FAIR      54  40  59 E3        30.03S                  
$$

WIZ056-057-062-063-064-067-068-240400-
SOUTH CENTRAL WISCONSIN
  
CITY           SKY/WX    TMP DP  RH WIND       PRES   REMARKS
REEDSBURG      FAIR      49  37  62 CALM      30.02S                  
BARABOO/DELLS  FAIR      48  35  61 CALM      30.02S                  
LONE ROCK      FAIR      54  44  69 CALM      30.02R                  
MINERAL POINT  FAIR      55  34  44 E3        30.03S                  
MADISON        FAIR      49  37  63 CALM      30.02S                  
MIDDLETON      FAIR      47  45  90 CALM      30.03R                  
WATERTOWN      FAIR      48  43  82 E7        30.03S                  
MONROE         FAIR      56  33  41 MISG      30.03S                  
JANESVILLE     FAIR      52  37  58 CALM      30.02S                  
$$
 
WIZ051-052-058>065-066-070>072-240400-
SOUTHEAST WISCONSIN
  
CITY           SKY/WX    TMP DP  RH WIND       PRES   REMARKS
MILWAUKEE      FAIR      42  36  79 E6        30.07R                  
WAUKESHA       FAIR      39  36  87 E7        30.06S WCI  34          
MILWAUKEE/TIMM FAIR      41  34  75 E3        30.07F                  
RACINE         FAIR      40  36  86 E3        30.08S                  
KENOSHA        FAIR      42  39  89 E8        30.05S                  
FOND DU LAC    FAIR      44  38  79 SE12      30.05R                  
SHEBOYGAN      FAIR      41  36  82 CALM      30.07S                  
WEST BEND      FAIR      37  36  93 CALM      30.07S                  
JUNEAU         FAIR      47  41  81 E9        30.04S                  
$$

LSZ147-162-240400-
LAKE SUPERIOR
  
STATION/POSITION TIME  TEMP    WIND        PRES    WAVE
                       AIR SEA DIR/SP/G            HT/PER
                 (UTC) (F)     (DEG/KT/KT) (MB)    (FT/S)
$$
 
LMZ867-665-643>646-240400-
LAKE MICHIGAN
  
STATION/POSITION TIME  TEMP    WIND        PRES    WAVE
                       AIR SEA DIR/SP/G            HT/PER
                 (UTC) (F)     (DEG/KT/KT) (MB)    (FT/S)
NORTHPORT PIER   0240   40     330/  2/  2 1017.6R
KEWAUNEE LAKESHO 0254   43     160/  2/  4 1017.4R
SHEBOYGAN LAKESH 0300   43     160/  2/  3 1018.5S
MILWAUKEE LAKESH 0300   41                   N/A
KENOSHA   LAKESH 0300   41      70/  6/  8 1018.3
$$

TC  - TEMPERATURE IN CELSIUS
VSB - VISIBILITY IN STATUTE MILES
WCI - WIND CHILL INDEX
HX  - HEAT INDEX